« Back
NWS Peachtree City, Ga » Text Product » GA Regional Weather Roundup


Printer-friendly Version
Current Version              Previous Versions:   1  2  3  4  5  6  7  8  9  

Regional Weather Roundup

934
ASUS42 KFFC 241703
RWRGA
WEATHER ROUNDUP FOR GEORGIA
NATIONAL WEATHER SERVICE PEACHTREE CITY GA
100 PM EDT THU APR 24 2014

NOTE: "FAIR" INDICATES FEW OR NO CLOUDS BELOW 12,000 FEET WITH NO
SIGNIFICANT WEATHER AND/OR OBSTRUCTIONS TO VISIBILITY.

* = USE WITH CAUTION. THE STATIONS MARKED WITH AN ASTERISK MAY NOT
REPORT WEATHER SUCH AS PRECIPITATION, FOG, OR THUNDER AND ARE NOT
QUALITY CONTROLLED BY NWS.

THE REMARK "TC" DENOTES TEMPERATURE READING IN DEGREES CELSIUS.

GAZ001>058-241800-
NORTH GEORGIA

CITY           SKY/WX    TMP DP  RH WIND       PRES   REMARKS
ATLANTA        MOSUNNY   73  43  33 E7        30.03F
ATHENS         SUNNY     72  40  31 VRB7      30.06F
CHAMBLEE       SUNNY     72  42  34 VRB3      30.03F
PEACHTREE CITY SUNNY     76  47  35 E7        30.02F
ROME           SUNNY     74  46  36 S10       30.00F
WEST ATLANTA   SUNNY     73  42  32 NE5       30.02F
GAINESVILLE    SUNNY     68  37  32 E13G18    30.07F
CARTERSVILLE   SUNNY     72  41  32 SE7       30.02F


CITY           SKY/WX    TMP DP  RH WIND       PRES   REMARKS
DALTON*        SUNNY     72  37  28 S3        30.01F
LAWRENCEVILLE* SUNNY     72  39  30 SE9       30.05F
MARIETTA       PTSUNNY   71  41  33 E6        30.03F
KENNESAW*      SUNNY     72  43  35 E6        30.05F
$$

GAZ059>098-102>109-241800-
CENTRAL GEORGIA

CITY           SKY/WX    TMP DP  RH WIND       PRES   REMARKS
AUGUSTA-BUSH   SUNNY     75  43  31 SE8       30.04F
AUGUSTA-DANIEL SUNNY     75  39  27 VRB3      30.05F
COLUMBUS       SUNNY     80  48  32 SE3       29.99F
MACON          SUNNY     78  48  34 VRB3      30.01F
ROBINS AFB     SUNNY     79  47  32 VRB2      30.00F


CITY           SKY/WX    TMP DP  RH WIND       PRES   REMARKS
LAGRANGE*      SUNNY     79  52  38 S6        30.00F
SYLVANIA*      SUNNY     79  56  45 CALM      30.04F
MILLEDGEVILLE* SUNNY     79  27  14 NE5       30.03F
$$

GAZ099>101-110>166-241800-
SOUTH GEORGIA

CITY           SKY/WX    TMP DP  RH WIND       PRES   REMARKS
SAVANNAH       MOSUNNY   81  62  52 E13       30.02F
VALDOSTA       MOSUNNY   87  60  40 S10       29.99F
ALMA           MOSUNNY   82  54  37 S5        30.00F
ST SIMONS      SUNNY     76  65  68 E10       30.02F
FT STEWART     SUNNY     83  60  46 VRB1      29.99F
ALBANY         MOSUNNY   80  55  42 VRB3      30.02F
HUNTER AFB     SUNNY     77  63  61 E14       30.01S
MOODY AFB      MOSUNNY   84  61  45 S7        29.99F
BRUNSWICK      SUNNY     82  55  39 CALM      30.01F


CITY           SKY/WX    TMP DP  RH WIND       PRES   REMARKS
BAINBRIDGE*    MOSUNNY   84  63  48 CALM      29.98F
MOULTRIE*      MOSUNNY   81  57  44 S5        30.00F
VIDALIA*       SUNNY     79  55  44 CALM      30.02F
DOUGLAS*       PTSUNNY   79  57  47 W3        30.02F
$$



USA.gov is the U.S. government's official web portal to all federal, state and local government web resources and services.